Wind_Speed
28 27 27 26 23 17 12 4 1 4 8 8 10 9 8 6 9 15 16 21 31 34 42 38 40 35 35 40 34 31 34 33 27 21 14 20 14 5 7 11 12 8 10 15 16 15 21 20 28
27 27 28 27 21 17 14 7 3 3 4 8 7 7 6 8 7 8 7 10 15 24 28 42 41 30 38 22 25 29 22 24 20 13 14 11 5 4 7 12 11 10 11 15 14 14 20 22 25
32 30 30 26 21 19 17 11 2 8 8 10 11 10 10 8 8 5 6 9 11 18 24 31 33 33 22 18 23 22 17 10 10 10 9 4 4 4 8 11 11 10 12 15 16 16 20 23 21
31 31 29 29 22 20 21 16 9 2 4 9 12 12 13 15 14 11 11 9 14 16 19 28 34 38 38 33 18 20 20 13 10 10 7 6 7 10 10 9 11 12 13 15 17 22 18 22 23
31 30 29 30 24 19 16 15 12 12 7 3 6 5 4 4 4 6 9 11 11 10 16 21 28 32 30 27 30 22 17 15 15 8 7 8 9 9 8 10 10 12 15 18 18 22 23 19 22
31 32 31 30 25 19 15 11 9 13 13 6 3 6 6 4 2 3 10 14 13 10 15 17 19 20 21 17 18 15 17 15 14 12 12 10 9 9 7 8 9 11 14 16 15 16 20 18 18
32 33 33 30 24 17 14 14 13 12 11 8 7 1 4 2 3 4 6 15 15 12 16 18 18 18 21 22 21 18 16 16 14 15 14 10 13 10 9 11 14 14 15 17 18 16 20 17 16
33 34 33 28 23 16 11 12 14 14 12 10 8 4 4 1 4 6 6 15 15 14 16 21 22 23 23 22 21 19 18 15 15 18 12 14 14 12 9 12 14 14 11 15 16 15 18 17 17
34 34 30 25 23 18 10 8 13 13 12 12 8 4 2 6 6 4 4 16 18 17 18 23 26 24 22 23 21 20 18 15 19 17 13 17 14 10 8 9 10 6 6 10 14 14 14 18 16
33 30 25 23 18 16 12 3 4 10 11 10 9 4 4 6 4 2 2 15 21 18 20 23 24 25 22 25 23 18 16 18 19 18 17 10 14 10 10 9 10 6 4 8 10 13 13 11 17
32 26 22 20 17 16 11 5 3 8 8 10 9 6 5 5 3 2 3 7 23 22 21 25 24 26 27 26 23 19 18 21 18 18 18 14 12 9 9 7 8 3 3 4 6 9 12 13 12
29 23 20 17 16 15 12 3 7 12 10 11 9 7 4 6 1 1 2 5 22 25 24 25 23 24 26 28 25 19 16 18 19 21 19 17 13 13 11 7 6 4 3 4 4 4 7 9 12
25 20 18 16 15 12 10 7 3 7 10 7 8 7 6 4 7 5 0 5 18 28 26 25 25 24 25 26 26 19 17 21 20 20 21 16 12 10 10 8 6 5 3 1 3 6 8 8 10
21 18 16 16 12 11 6 9 4 2 8 4 7 11 6 1 4 9 6 2 15 31 30 26 27 27 28 27 25 21 18 17 18 17 17 15 15 12 12 8 8 6 4 2 6 10 12 9 9
21 20 16 16 12 12 7 8 11 8 4 4 8 12 12 9 5 8 8 3 11 27 32 29 28 29 28 27 24 23 20 17 15 13 15 16 20 18 16 14 11 11 9 9 11 11 14 10 11
22 19 15 16 13 14 9 12 14 6 5 6 9 11 15 14 11 8 9 5 6 22 28 30 29 28 26 27 26 24 20 18 17 16 15 15 17 23 22 19 15 14 16 17 14 14 15 14 12
19 18 16 14 15 17 12 9 10 9 4 8 7 5 10 14 14 9 8 5 3 16 26 30 30 30 28 27 27 24 20 18 17 17 16 15 17 20 22 21 19 20 20 19 16 16 15 16 15
19 18 16 14 14 18 16 16 17 12 8 5 9 1 5 8 13 9 4 5 3 11 18 22 25 28 27 27 26 23 20 19 19 19 18 16 16 16 17 20 20 21 19 19 19 19 21 22 19
20 18 16 14 14 18 19 20 15 11 14 12 9 7 1 6 8 10 4 6 3 6 13 18 18 22 23 23 22 21 19 18 19 19 17 18 18 16 17 19 21 21 21 23 21 20 20 21 24
22 17 14 14 15 18 19 19 18 13 13 10 7 9 7 2 1 7 7 6 3 4 8 13 16 18 19 21 20 20 18 16 17 19 19 17 18 17 17 20 22 24 22 20 19 17 19 21 22
23 18 10 15 18 17 19 20 20 19 15 14 15 6 10 12 4 3 5 10 4 1 5 9 10 11 13 12 12 12 11 11 12 13 15 12 15 16 14 16 16 16 18 16 17 15 15 14 14
26 20 13 18 21 16 18 22 25 25 25 23 21 19 15 14 15 13 5 3 5 6 2 3 7 7 8 10 10 8 7 6 8 9 12 14 15 18 18 16 18 19 19 18 16 15 16 15 15
32 24 18 19 22 20 17 21 24 29 30 27 27 26 19 12 16 15 11 10 1 6 7 1 6 8 10 9 10 9 4 8 12 14 14 16 16 19 22 21 19 19 18 19 20 18 19 16 17
32 24 20 20 24 24 16 22 23 23 23 25 25 22 16 11 13 20 15 16 11 0 3 3 5 8 12 10 11 11 9 9 11 13 11 17 21 19 19 22 23 21 20 20 21 19 19 18 16
27 26 26 26 26 23 19 22 25 24 24 26 27 24 20 13 14 17 23 21 19 9 7 10 6 4 5 12 13 14 11 11 4 10 9 7 3 6 11 19 19 23 24 23 22 21 15 13 10
27 25 26 28 28 23 20 23 27 25 27 29 35 28 20 16 17 17 24 27 26 19 11 10 2 3 4 10 14 15 10 9 14 14 14 5 8 6 6 7 2 13 21 24 21 16 13 6 4
26 23 20 24 27 26 23 24 26 25 28 31 35 28 23 19 19 19 22 26 29 25 18 13 11 8 4 3 8 12 11 13 14 10 7 2 5 5 6 6 2 5 11 13 14 12 9 8 3
23 21 19 20 23 24 24 27 27 29 31 32 35 28 24 21 21 20 22 23 25 21 19 21 17 13 4 4 4 6 11 12 9 3 6 8 9 7 4 6 8 6 1 7 9 10 10 7 1
19 18 19 20 20 20 22 25 25 27 28 32 34 27 24 24 24 24 24 27 29 27 26 26 20 14 15 15 6 5 7 10 13 6 10 14 13 10 10 5 1 4 3 8 13 15 7 9 11
18 20 19 16 15 16 19 20 22 23 27 31 30 24 23 23 25 25 27 29 31 27 31 27 28 28 28 25 16 8 6 16 19 18 14 12 19 16 12 15 15 11 9 12 17 12 12 16 17
Wind_Direction
354 3 6 6 14 24 22 7 36 128 127 138 133 129 122 144 177 181 190 192 201 196 207 209 222 231 230 223 241 242 256 272 298 302 314 317 316 308 59 84 65 53 34 29 41 44 38 41 41
354 5 8 7 16 22 26 353 264 249 193 178 193 191 170 137 133 168 181 182 200 202 207 215 222 228 222 230 244 248 264 276 278 287 292 291 285 88 84 80 64 59 46 42 40 45 43 49 44
356 4 9 12 16 21 21 17 263 230 225 232 235 230 232 187 171 210 210 216 213 219 214 216 219 222 226 230 232 243 250 229 223 233 228 180 139 91 98 68 65 67 58 60 54 57 44 52 48
355 359 7 11 21 21 15 12 22 10 252 226 228 232 243 240 245 249 248 239 216 218 215 222 220 219 233 214 184 209 208 193 184 197 205 152 154 130 101 68 67 69 77 71 50 50 51 48 49
353 358 1 7 11 28 26 17 30 21 11 161 158 144 137 164 208 239 245 230 221 207 207 210 217 224 233 221 231 210 191 173 172 194 191 189 170 141 89 61 74 83 67 72 63 57 50 47 49
352 354 359 2 7 22 37 36 41 36 24 28 87 122 127 114 8 276 231 221 212 191 197 183 194 205 209 209 204 180 175 186 179 187 194 196 159 129 76 63 89 88 79 66 61 53 38 43 57
353 349 353 359 6 23 42 48 36 34 30 351 331 229 171 135 38 37 205 204 201 191 187 181 181 179 177 174 170 175 176 186 187 184 188 173 158 138 90 90 109 94 76 57 43 34 39 52 53
351 346 350 354 3 16 52 62 42 25 25 23 353 260 234 252 0 21 154 184 186 194 190 179 179 175 177 172 177 176 181 184 179 176 170 154 156 145 117 119 124 106 66 49 33 36 48 51 52
346 343 347 350 356 1 20 43 28 17 10 10 35 60 234 299 324 351 100 176 181 185 185 177 175 178 178 174 178 179 183 178 177 174 163 163 158 145 142 132 148 119 70 48 38 50 57 48 56
337 337 341 342 346 351 353 18 332 352 2 9 11 9 300 297 311 319 79 175 179 182 180 173 179 182 181 179 178 180 186 182 182 173 166 162 165 153 159 163 163 153 67 35 44 54 43 53 50
327 334 336 334 339 341 340 34 5 15 15 11 7 8 315 291 293 217 176 167 180 181 180 173 177 182 180 181 183 185 181 183 182 177 179 166 169 163 164 172 167 207 305 10 37 47 57 41 49
319 331 329 329 333 332 334 32 71 41 18 355 358 357 325 301 128 314 244 201 188 184 184 179 178 183 185 186 188 192 192 184 187 189 188 179 183 197 200 188 178 182 127 33 0 347 11 40 28
317 325 321 319 324 324 328 0 97 44 27 11 13 3 357 11 28 23 5 218 188 188 187 183 182 184 188 191 193 193 197 192 190 198 201 198 202 210 199 183 182 165 179 94 48 8 351 334 359
310 315 313 311 306 302 302 316 254 126 57 62 35 32 23 3 21 21 358 298 188 188 186 188 186 184 187 189 191 192 194 190 193 205 219 217 216 217 207 209 227 203 180 288 309 335 330 308 332
300 302 302 297 279 279 286 293 282 243 93 46 69 65 31 16 29 46 26 306 193 191 184 192 191 188 187 188 193 201 197 198 206 216 228 236 239 234 232 236 253 246 245 272 277 283 300 315 303
300 300 296 289 276 260 257 259 278 279 208 139 117 68 44 17 22 43 37 353 190 187 188 190 196 194 193 195 200 207 211 222 237 242 236 241 240 238 236 243 254 259 259 283 292 286 288 308 292
294 294 291 276 272 258 245 242 269 290 292 191 175 68 67 25 8 17 59 42 151 189 187 191 196 199 199 201 206 212 220 228 235 240 244 244 246 242 243 249 260 269 279 282 283 281 271 288 295
289 288 287 281 272 257 247 234 252 256 292 301 224 252 60 38 14 9 58 78 119 158 189 195 198 201 203 205 210 219 228 238 238 240 238 237 239 237 243 247 255 264 265 271 273 272 280 282 285
280 280 283 280 267 257 249 251 257 245 267 289 302 281 82 39 39 28 39 71 98 145 168 187 197 200 206 213 220 226 230 235 245 247 245 247 251 260 255 254 256 261 265 272 274 271 285 282 280
274 276 274 266 260 253 259 254 270 259 253 248 266 293 286 289 84 41 28 89 55 140 161 179 186 192 203 214 224 231 236 243 252 256 254 250 251 252 258 258 261 263 266 273 270 271 278 285 291
268 269 256 264 259 244 249 250 259 271 271 248 240 249 310 265 236 246 18 68 96 146 160 176 178 185 189 203 225 235 241 245 248 254 251 237 243 253 258 256 260 264 260 265 270 270 284 295 302
263 266 248 240 262 256 245 245 247 256 262 271 274 277 280 278 245 253 261 289 67 71 224 204 171 183 194 200 214 222 233 251 261 267 267 261 261 268 263 265 270 266 261 255 274 273 277 283 288
257 257 251 246 250 260 264 259 245 258 267 272 278 283 293 250 228 235 232 239 222 81 65 306 215 196 207 207 200 212 255 307 316 311 289 279 270 270 268 260 266 267 261 259 275 274 270 276 282
261 257 249 249 246 254 252 265 267 267 271 275 275 280 277 254 229 223 233 233 239 176 34 1 334 234 223 219 223 242 268 274 286 281 267 262 258 261 265 264 258 262 261 257 267 273 275 279 285
262 254 244 242 247 253 244 248 260 267 271 277 277 278 279 264 251 237 223 226 233 223 286 313 300 269 226 236 234 239 240 252 206 118 95 53 312 250 243 254 260 250 251 253 263 272 271 283 285
258 253 248 245 246 253 249 247 259 260 263 266 271 273 272 261 246 235 214 220 229 241 253 263 347 305 290 216 219 219 216 163 129 144 111 55 54 23 50 38 309 245 245 252 257 257 266 253 248
254 252 248 245 246 250 253 254 259 258 259 261 263 267 265 252 240 235 213 225 230 239 244 239 187 150 75 4 232 227 231 159 147 129 45 332 272 269 298 358 131 240 238 238 246 237 207 163 147
247 246 240 236 236 240 245 250 253 256 258 258 262 262 259 253 248 235 220 222 227 228 221 204 184 186 222 286 317 249 234 212 212 207 294 237 234 248 12 30 8 47 276 193 181 176 157 181 258
242 246 242 236 239 237 235 240 242 249 254 256 254 252 246 244 241 231 222 216 221 220 212 207 214 218 236 254 278 91 232 222 194 197 296 293 265 263 283 313 337 323 329 198 177 175 219 253 276
225 233 240 243 244 246 245 244 248 249 249 254 262 259 255 250 249 246 226 224 218 219 227 238 236 245 245 245 233 248 245 194 205 254 269 279 263 265 269 286 283 268 248 232 217 238 269 281 279
Height
10988 10984 10979 10975 10972 10971 10969 10968 10968 10968 10969 10969 10970 10971 10972 10972 10973 10975 10979 10981 10983 10985 10988 10989 10990 10992 10994 10995 10995 10997 10998 10999 10999 11002 11001 11003 11002 11000 10998 10997 10994 10993 10993 10991 10990 10986 10983 10980 10977
10987 10984 10979 10974 10972 10970 10969 10968 10968 10967 10967 10968 10970 10970 10971 10972 10973 10975 10976 10978 10980 10981 10983 10986 10988 10989 10991 10995 10995 10997 10998 10998 10999 11000 11003 11002 11002 11000 11000 10999 10997 10995 10994 10992 10991 10989 10985 10982 10978
10983 10981 10979 10975 10971 10968 10967 10967 10967 10967 10966 10966 10967 10968 10969 10971 10972 10973 10975 10976 10977 10978 10979 10981 10982 10987 10990 10993 10993 10995 10997 10997 10997 11000 11002 11002 11002 11000 11001 11000 10998 10997 10996 10995 10992 10990 10987 10984 10981
10983 10979 10978 10975 10972 10967 10964 10964 10964 10964 10964 10965 10964 10965 10966 10968 10969 10971 10972 10973 10973 10974 10975 10976 10979 10982 10985 10990 10990 10992 10994 10995 10996 10999 11000 11000 11001 11001 11001 11001 10999 10998 10997 10996 10994 10992 10989 10986 10984
10983 10980 10976 10974 10971 10969 10966 10963 10963 10963 10963 10962 10962 10963 10964 10965 10966 10966 10967 10969 10969 10970 10971 10972 10975 10978 10980 10985 10990 10989 10992 10993 10996 10997 10998 10999 11000 11001 11001 11000 11000 11000 10999 10997 10995 10994 10992 10990 10987
10981 10977 10974 10972 10971 10969 10968 10965 10963 10962 10962 10961 10961 10962 10963 10963 10963 10963 10963 10965 10967 10968 10970 10971 10973 10977 10980 10983 10986 10988 10991 10994 10995 10996 10997 11000 11000 11002 11001 11001 11001 11002 11001 11000 10998 10996 10994 10991 10989
10981 10976 10972 10972 10971 10970 10970 10966 10962 10960 10962 10961 10960 10961 10962 10962 10962 10961 10960 10962 10964 10967 10969 10971 10973 10976 10978 10981 10984 10988 10990 10993 10995 10997 10998 10998 11000 11000 11001 11001 11001 11002 11001 11000 10999 10998 10996 10993 10991
10980 10975 10972 10970 10969 10969 10970 10968 10965 10962 10962 10960 10959 10961 10962 10962 10961 10959 10958 10959 10962 10965 10967 10970 10973 10976 10978 10980 10984 10987 10990 10992 10994 10997 10998 10998 10999 11000 11001 11001 11002 11002 11002 11001 11000 10999 10997 10994 10993
10979 10975 10972 10970 10967 10968 10969 10968 10966 10964 10962 10961 10960 10960 10961 10962 10960 10959 10957 10958 10961 10963 10965 10967 10972 10975 10978 10981 10984 10988 10989 10990 10992 10996 10997 10999 10999 11000 11001 11002 11003 11003 11003 11002 11002 11001 10999 10997 10995
10978 10975 10972 10969 10967 10966 10968 10968 10965 10964 10962 10961 10961 10960 10959 10960 10958 10958 10957 10956 10958 10962 10964 10966 10970 10973 10977 10981 10985 10987 10988 10990 10992 10995 10997 10999 11000 11001 11001 11001 11003 11004 11004 11004 11003 11002 11001 10999 10997
10975 10974 10971 10968 10966 10965 10966 10965 10965 10963 10961 10960 10959 10959 10958 10957 10956 10956 10955 10955 10956 10959 10963 10965 10968 10972 10976 10980 10984 10986 10988 10991 10992 10995 10996 10998 11000 11001 11001 11001 11002 11002 11003 11003 11003 11002 11002 11001 10999
10974 10973 10969 10966 10965 10963 10963 10965 10965 10963 10961 10959 10957 10957 10956 10955 10954 10954 10954 10953 10955 10958 10961 10963 10966 10970 10975 10979 10982 10986 10988 10990 10992 10994 10996 10997 10998 11000 11002 11002 11002 11002 11002 11002 11002 11002 11003 11002 11001
10971 10970 10966 10965 10964 10963 10961 10963 10965 10963 10961 10959 10957 10956 10954 10954 10954 10952 10951 10950 10950 10955 10959 10961 10964 10968 10973 10978 10981 10984 10986 10988 10991 10994 10995 10997 10998 11000 11002 11002 11002 11001 11002 11002 11003 11002 11002 11001 11000
10968 10966 10964 10964 10963 10962 10960 10960 10961 10962 10962 10962 10959 10957 10956 10955 10954 10952 10950 10948 10947 10950 10955 10960 10963 10966 10970 10975 10980 10983 10985 10988 10990 10993 10995 10996 10997 10999 11000 11000 11000 11000 11001 11001 11002 11002 11001 11001 11000
10966 10964 10963 10962 10962 10961 10960 10958 10958 10961 10963 10963 10962 10959 10957 10956 10954 10952 10951 10948 10946 10948 10951 10958 10963 10966 10969 10974 10978 10981 10984 10988 10989 10991 10992 10994 10995 10996 10997 10998 10999 10999 11000 11000 11000 11000 10999 10999 10999
10961 10960 10959 10959 10959 10960 10960 10958 10956 10957 10960 10962 10961 10960 10957 10955 10952 10950 10949 10949 10946 10946 10949 10955 10962 10966 10969 10973 10976 10979 10982 10985 10987 10988 10989 10989 10990 10991 10994 10995 10995 10996 10997 10997 10997 10998 10998 10997 10996
10957 10956 10956 10956 10955 10956 10959 10957 10956 10955 10956 10958 10959 10958 10958 10957 10955 10951 10949 10948 10947 10947 10949 10952 10958 10963 10967 10970 10972 10976 10979 10981 10983 10985 10985 10986 10986 10987 10988 10991 10993 10992 10993 10992 10993 10994 10994 10994 10994
10953 10952 10953 10953 10953 10952 10954 10955 10954 10954 10954 10953 10955 10957 10957 10957 10955 10952 10949 10949 10950 10949 10951 10954 10956 10960 10964 10967 10970 10973 10976 10977 10979 10980 10982 10983 10983 10984 10985 10986 10988 10988 10989 10990 10990 10990 10990 10991 10990
10948 10949 10949 10949 10949 10949 10950 10950 10951 10953 10953 10951 10952 10954 10956 10956 10955 10954 10951 10949 10950 10950 10951 10953 10955 10958 10962 10966 10969 10970 10972 10974 10975 10976 10978 10979 10980 10981 10982 10982 10982 10983 10985 10986 10986 10986 10986 10986 10986
10943 10945 10946 10945 10945 10945 10946 10949 10948 10951 10952 10953 10952 10950 10953 10955 10955 10955 10954 10950 10950 10950 10951 10952 10953 10956 10959 10963 10966 10968 10969 10970 10971 10974 10975 10975 10976 10977 10978 10978 10979 10979 10980 10981 10982 10982 10982 10982 10982
10937 10941 10943 10939 10939 10943 10944 10945 10946 10947 10949 10949 10949 10951 10951 10951 10954 10955 10956 10953 10952 10952 10952 10952 10953 10955 10957 10960 10962 10965 10967 10969 10970 10971 10973 10973 10972 10972 10972 10973 10974 10975 10976 10977 10977 10977 10978 10978 10977
10930 10935 10938 10936 10934 10939 10941 10942 10942 10943 10944 10944 10945 10947 10948 10947 10950 10952 10954 10954 10953 10953 10954 10953 10952 10954 10956 10959 10962 10964 10966 10967 10969 10969 10970 10970 10970 10970 10969 10968 10969 10970 10971 10972 10973 10974 10974 10974 10974
10922 10928 10932 10932 10931 10932 10936 10935 10939 10938 10938 10938 10938 10940 10943 10944 10945 10948 10951 10952 10952 10951 10953 10954 10954 10954 10955 10957 10960 10962 10963 10964 10964 10964 10964 10964 10964 10965 10966 10965 10964 10965 10966 10967 10968 10969 10970 10970 10970
10915 10922 10926 10927 10926 10927 10932 10929 10930 10932 10932 10931 10932 10934 10937 10940 10943 10944 10946 10948 10949 10948 10949 10950 10951 10951 10952 10954 10955 10956 10957 10956 10956 10956 10956 10956 10955 10955 10955 10957 10959 10961 10962 10962 10963 10964 10965 10965 10965
10909 10914 10917 10919 10920 10922 10927 10927 10925 10926 10927 10924 10923 10927 10931 10935 10936 10938 10942 10944 10944 10945 10946 10947 10946 10946 10946 10947 10948 10949 10950 10950 10949 10953 10953 10952 10952 10949 10947 10949 10952 10954 10956 10957 10958 10959 10959 10960 10960
10901 10905 10908 10911 10913 10917 10921 10921 10919 10922 10921 10921 10915 10920 10925 10928 10930 10931 10935 10938 10940 10941 10943 10944 10945 10944 10941 10940 10943 10946 10947 10947 10947 10947 10948 10951 10949 10947 10945 10943 10944 10947 10950 10951 10953 10954 10954 10956 10957
10893 10898 10902 10903 10906 10909 10913 10914 10914 10914 10914 10912 10909 10914 10918 10921 10923 10926 10930 10933 10935 10938 10939 10939 10941 10943 10943 10941 10943 10945 10947 10948 10948 10947 10945 10947 10948 10946 10945 10944 10941 10943 10946 10947 10948 10949 10951 10952 10954
10887 10890 10894 10896 10898 10902 10905 10905 10906 10906 10905 10904 10902 10908 10912 10914 10917 10921 10924 10927 10930 10933 10933 10935 10937 10939 10941 10942 10942 10943 10946 10948 10950 10946 10945 10945 10946 10946 10947 10946 10944 10942 10944 10945 10946 10948 10950 10951 10952
10881 10883 10887 10889 10893 10896 10896 10896 10898 10897 10896 10894 10893 10899 10902 10904 10907 10912 10916 10920 10923 10927 10929 10931 10934 10936 10937 10938 10939 10938 10940 10941 10944 10944 10944 10945 10944 10943 10945 10946 10946 10944 10944 10946 10946 10947 10948 10948 10949
10875 10877 10880 10884 10888 10889 10889 10890 10889 10889 10887 10884 10888 10897 10900 10901 10903 10906 10910 10912 10915 10919 10924 10927 10931 10930 10932 10936 10937 10937 10938 10941 10942 10940 10940 10942 10942 10940 10940 10944 10946 10945 10944 10945 10947 10946 10946 10945 10945